Terminal Aerodrome Forecast
Issued by NWS Honolulu, HI

Home | Current Version | Previous Version | Text Only | Print | Product List | Glossary On
Versions: 1 2 3 4 5 6 7 8 9 10 11 12 13 14 15 16 17 18 19 20 21 22 23 24 25 26 27 28 29 30 31 32 33 34 35 36 37 38 39 40 41 42 43 44 45
000
FTPA31 PHFO 231700
TAFHNL
TAF
PHNL 231731Z 2318/2424 07010G20KT P6SM FEW025 SCT040 BKN200
     FM231900 07015G25KT P6SM FEW025 SCT040
     FM240600 07012G18KT P6SM FEW025 SCT040
     FM241000 07012KT P6SM FEW025 SCT040
     FM241900 07012G28KT P6SM FEW025 SCT040=

USA.gov is the U.S. government's official web portal to all federal, state and local government web resources and services.